Home > Weather > Chibougamau > Past weeks

Flag for Canada Weather for the Past 2 Weeks in Chibougamau, Quebec, Canada

Now
41 °F

Passing clouds.


Feels Like: 36 °F
Forecast: N/A
Wind: 7 mph from Northwest

Location: Chibougamau-Chapais

Current Time: Apr 29, 2016 at 5:46:28 PM

Latest Report: Apr 29, 2016 at 5:00 PM


Visibility: 15 mi

Pressure: 30.22 "Hg

Humidity: 36%

Dew Point: 16 °F

Location of ChibougamauLocation

Historic Weather in Chibougamau — Graph

°F

Chibougamau Temperature Yesterday

Maximum temperature yesterday: 30 °F (at 4:00 PM)
Minimum temperature yesterday: 16 °F (at 6:00 AM)
Average temperature yesterday: 24 °F

High & Low Weather Summary for the Past Weeks

 TemperatureHumidityPressure
High57 °F (Apr 21, 4:00 PM)100% (Apr 22, 6:00 AM)30.52 "Hg (Apr 22, 6:00 AM)
Low7 °F (Apr 26, 6:00 AM)25% (Apr 15, 3:00 PM)29.83 "Hg (Apr 21, 5:00 PM)
Average31 °F55%30.17 "Hg
* Reported Apr 14 4:00 PM — Apr 29 4:00 PM, Chibougamau, Weather by CustomWeather, © 2016

Note: Actual official high and low records may vary slightly from our data, if they occured in-between our weather recording intervals... More about our weather records

Advertising

Chibougamau Weather History for the Previous 24 Hours

Scroll right to see more
 ConditionsComfort  
Time TempWeatherWind HumidityBarometerVisibility
4:00 PM
Fri, Apr 29
39 °FPassing clouds.5 mph39%30.22 "Hg15 mi
3:00 PM37 °FPassing clouds.2 mph38%30.23 "Hg15 mi
2:00 PM37 °FScattered clouds.6 mph45%30.24 "Hg15 mi
1:00 PM36 °FPartly sunny.9 mph48%30.25 "Hg15 mi
12:00 PM32 °FPartly sunny.9 mph47%30.26 "Hg15 mi
11:00 AM32 °FPartly sunny.7 mph51%30.27 "Hg15 mi
10:00 AM32 °FPartly sunny.7 mph47%30.27 "Hg15 mi
9:00 AM30 °FScattered clouds.6 mph47%30.26 "Hg15 mi
8:00 AM23 °FPassing clouds.No wind58%30.26 "Hg15 mi
7:00 AM14 °FScattered clouds.No wind85%30.26 "Hg15 mi
6:00 AM9 °FPassing clouds.No wind85%30.25 "Hg15 mi
9:00 PM
Thu, Apr 28
25 °FSunny.5 mph50%30.26 "Hg15 mi
8:00 PM27 °FSunny.6 mph46%30.24 "Hg15 mi
7:00 PM30 °FPassing clouds.7 mph43%30.23 "Hg15 mi
6:00 PM30 °FPassing clouds.6 mph43%30.22 "Hg15 mi
5:00 PM30 °FScattered clouds.5 mph43%30.21 "Hg15 mi
Weather by CustomWeather, © 2016

See weather overviewHow to use our weather pages